Saipan, MP

9:48 PM ChST on July 21, 2017 (GMT +1000)
Saipan International

Weather History for PGSN - October, 2012

Change the Weather History Date:

Thursday, October 25, 2012

  Actual Average Record
Temperature  
Mean Temperature 82 °F -  
Max Temperature 87 °F 84 °F 89 °F (2016)
Min Temperature 77 °F 75 °F 42 °F (2001)
Cooling Degree Days 17    
Growing Degree Days 32 (Base 50)    
Moisture  
Dew Point 75 °F    
Average Humidity 79    
Maximum Humidity 88    
Minimum Humidity 69    
Precipitation  
Precipitation 0.16 in - - ()
Sea Level Pressure  
Sea Level Pressure 29.91 in    
Wind  
Wind Speed 11 mph (ENE)    
Max Wind Speed 17 mph    
Max Gust Speed 24 mph    
Visibility 10 miles    
Events Rain    
Averages and records for this station are not official NWS values.
T = Trace of Precipitation, MM = Missing Value Source: NWS Daily Summary

Daily Weather History Graph

Daily Weather History Graph

Search for Another Location

Airport or City:

Trip Planner

Search our weather history database for the weather conditions in past years. The results will help you decide how hot, cold, wet, or windy it might be!

Date:

Astronomy

Oct. 25, 2012 Rise Set
Actual Time 6:10 AM ChST 5:51 PM ChST
Civil Twilight 5:49 AM ChST 6:13 PM ChST
Nautical Twilight 5:23 AM ChST 6:38 PM ChST
Astronomical Twilight 4:58 AM ChST 7:03 PM ChST
Moon 2:42 PM ChST (10/25) 2:08 AM ChST (10/25)
Length of Visible Light 12h 23m
Length of Day
11h 40m
Waxing Gibbous, 79% of the Moon is Illuminated
Oct 25
Waxing Gibbous
Oct 30
Full
Nov 7
Last Quarter
Nov 14
New
Nov 21
First Quarter

Hourly Weather History & Observations

Time (ChST) Temp. Heat Index Dew Point Humidity Pressure Visibility Wind Dir Wind Speed Gust Speed Precip Events Conditions
12:54 AM 79.0 °F - 75.0 °F 88% 29.92 in 7.0 mi NE 10.4 mph - 0.01 in Rain Light Rain
1:54 AM 80.1 °F 85.4 °F 75.9 °F 87% 29.91 in 10.0 mi ENE 6.9 mph - 0.00 in   Mostly Cloudy
2:54 AM 77.0 °F - 73.0 °F 88% 29.91 in 10.0 mi NE 8.1 mph 23.0 mph 0.09 in Rain Light Rain
3:54 AM 78.1 °F - 73.9 °F 87% 29.90 in 10.0 mi East 6.9 mph - 0.00 in   Scattered Clouds
4:54 AM 79.0 °F - 75.0 °F 88% 29.90 in 9.0 mi East 10.4 mph - 0.00 in   Mostly Cloudy
5:03 AM 78.8 °F - 73.4 °F 83% 29.84 in 8.0 mi East 5.8 mph - 0.02 in Rain Light Rain
5:54 AM 80.1 °F 85.4 °F 75.9 °F 87% 29.91 in 10.0 mi ENE 3.5 mph - 0.02 in   Scattered Clouds
6:54 AM 82.0 °F 88.6 °F 75.0 °F 79% 29.93 in 10.0 mi East 8.1 mph - N/A   Scattered Clouds
7:54 AM 82.0 °F 88.6 °F 75.0 °F 79% 29.96 in 10.0 mi East 9.2 mph - 0.00 in   Scattered Clouds
8:54 AM 86.0 °F 96.0 °F 75.9 °F 72% 29.96 in 10.0 mi East 10.4 mph - N/A   Partly Cloudy
9:54 AM 87.1 °F 97.3 °F 75.9 °F 69% 29.97 in 10.0 mi East 13.8 mph - N/A   Partly Cloudy
10:54 AM 87.1 °F 97.3 °F 75.9 °F 69% 29.95 in 10.0 mi ENE 10.4 mph - N/A   Partly Cloudy
11:54 AM 86.0 °F 96.9 °F 77.0 °F 74% 29.92 in 10.0 mi ENE 15.0 mph - N/A   Scattered Clouds
12:54 PM 86.0 °F 96.0 °F 75.9 °F 72% 29.91 in 10.0 mi ENE 16.1 mph - N/A   Scattered Clouds
1:54 PM 87.1 °F 97.3 °F 75.9 °F 69% 29.89 in 10.0 mi ENE 17.3 mph 24.2 mph N/A   Scattered Clouds
2:54 PM 87.1 °F 98.8 °F 77.0 °F 72% 29.87 in 10.0 mi ENE 16.1 mph - N/A   Scattered Clouds
3:54 PM 84.0 °F 93.7 °F 77.0 °F 79% 29.88 in 10.0 mi East 11.5 mph - 0.00 in   Overcast
4:54 PM 82.0 °F 89.4 °F 75.9 °F 82% 29.90 in 3.0 mi NE 15.0 mph 19.6 mph 0.01 in Rain Heavy Rain
5:54 PM 82.0 °F 89.4 °F 75.9 °F 82% 29.91 in 10.0 mi ENE 10.4 mph - 0.03 in   Scattered Clouds
6:54 PM 81.0 °F 85.2 °F 72.0 °F 74% 29.92 in 10.0 mi NE 11.5 mph - N/A   Mostly Cloudy
7:54 PM 81.0 °F 86.7 °F 75.0 °F 82% 29.94 in 10.0 mi NE 10.4 mph - N/A   Partly Cloudy
8:54 PM 82.0 °F 89.4 °F 75.9 °F 82% 29.94 in 10.0 mi NE 13.8 mph - N/A   Mostly Cloudy
9:54 PM 82.0 °F 88.6 °F 75.0 °F 79% 29.94 in 10.0 mi NE 15.0 mph - N/A   Overcast
10:28 PM 82.4 °F 89.5 °F 75.2 °F 79% 29.87 in 10.0 mi NE 16.1 mph - N/A   Overcast
10:38 PM 82.4 °F 89.5 °F 75.2 °F 79% 29.87 in 10.0 mi NE 15.0 mph - N/A   Overcast
10:54 PM 82.0 °F 88.6 °F 75.0 °F 79% 29.93 in 10.0 mi NE 13.8 mph 23.0 mph N/A   Mostly Cloudy
11:54 PM 82.0 °F 88.6 °F 75.0 °F 79% 29.92 in 10.0 mi NE 13.8 mph 20.7 mph N/A   Mostly Cloudy